CZ-3A DEB, 35551

Orbit data source: Space-Track

CZ-3A DEB, 35551 is space debris in HEO originally from a launch on Fri, 02 Feb 2007 UTC launched from the Xichang Space Center, China (XSC). Debris objects in space refer to the collection of defunct objects orbiting the Earth. Examples of debris include non-operational satellites, rocket bodies, and fragments generated from explosions, collisions, or faulty payload assembly.

Loading next visibility...
Identifier
35551, 2007-003K
Orbit
HEO
Country
Flag of CNCN / PRC
Related business
Manufacturer
Unknown
Mission
Spacecraft
Bus & Motor
Unknown
Mass
Unknown
Launch date (UTC)
2007-02-02 (19 years ago)
Launch vehicle
Unknown
Launch site
Xichang Space Center, China (XSC)
Object type
Payload
Rocket body
Debris
Shape & HBR
Unknown shape, 0.1 m
Radar Cross Section
Medium (>0.1 m² and <1 m²)

Expand to show TLE details & history
Last TLE update: 1 day ago

TLE from 1 day ago
0 CZ-3A DEB
1 35551U 07003K   25340.41372516  .00000112  00000-0  29110-2 0  9991
2 35551  25.1419 297.0033 7234416  25.8996 356.9267  2.16443916 16880
Epoch: 2025-12-06T09:55Z
TLE epoch observation values (Epoch: 2025-12-06T09:55:45.853Z)
Latitude
0.0005°
Longitude
72.63239°
Altitude
932.158 km
Speed
9.657 km/s
True Right ascension
19h 48m 03s
True Declination
0° 00' 02"
Sunlit
Object was in daylight at epoch
Visualization orbit readout
Latitude
Unknown
Longitude
Unknown
Altitude
Unknown
Speed
Unknown
Apparent Right ascension
Unknown
Apparent Declination
Unknown
Sunlit
N/A
Visualization observer readout
Local Sidereal Time
09:10:58
Azimuth
Unknown
Elevation
Unknown
Doppler factor
Unknown
Orbital elements
Apogee altitude
37,136.457 km
Perigee altitude
604.593 km
Semi-major axis
25,248.662 km
Eccentricity
0.72344
Inclination
25.1419°
RAAN
297.0033°
Arg. of periapsis
25.8996°
True anomaly
333.11338°
Mean anomaly
356.9267°
Eccentric anomaly
349.06087°
Mean motion
0.54099 °/min
Orbital period
665.45 mins
BSTAR
0.002911
Loading maneuver chart data...
Computing Atmospheric mass density...
Loading historical data...
Loading historical data...
Loading historical data...
Loading historical data...
Loading historical data...
Loading historical data...
Loading historical data...

Documentation

Showing up to 5 results
|